Volver al catálogo

STARLINK-36691

ActivoComunicacionesSSO
NORAD 67735·PAYLOAD·🇺🇸 United States

Lanzado Feb 11, 2026 desde Vandenberg Space Force Base

Loading…

Próximos Pases (próximas 24 horas)

TLE

ActualizadoSource: CelesTrak SupGP

Época: Sep 14, 2026, 14:52 UTC

1 67735C 26026Q   26257.61993056  .00045336  00000+0  14071-2 0  2577
2 67735  97.2852 309.5581 0000962 111.7997 150.0400 15.33422947    17

Sigue STARLINK-36691 en tiempo real con AllMySat

Download on the App Store